Wind_Speed
27 27 29 30 31 32 34 34 34 33 33 31 31 31 31 32 33 34 35 35 35 35 36 36 37 38 37 37 37 37 37 36 36 36 36 36 36 36 36 36 36 37 37 38
25 26 27 29 30 31 33 34 34 34 33 31 31 32 31 32 33 33 34 35 36 35 35 36 37 37 37 37 37 37 37 36 36 36 36 36 37 37 37 37 37 37 37 37
24 24 26 27 28 30 31 32 33 33 31 31 30 31 31 31 32 33 33 35 36 36 35 35 36 36 36 37 37 37 37 36 36 37 37 37 36 36 36 37 37 37 37 37
24 25 26 26 27 28 29 30 31 31 30 30 29 30 32 32 32 33 33 34 35 35 35 35 35 35 36 36 36 36 36 37 37 37 37 37 37 37 37 37 38 38 38 38
25 26 25 25 27 28 28 28 30 30 30 30 30 31 31 31 32 32 33 34 35 35 35 35 35 35 35 35 36 36 36 36 37 36 36 36 36 37 37 38 38 38 38 39
26 26 25 24 25 27 28 28 28 29 29 30 30 30 30 31 31 31 32 33 34 34 35 36 35 35 35 34 35 35 35 36 36 36 36 36 36 37 37 38 38 38 39 39
26 26 26 25 25 26 27 27 27 27 28 29 30 30 30 31 31 32 32 33 33 33 34 34 35 35 35 34 34 35 35 36 36 36 36 36 36 36 37 37 38 38 38 39
24 25 25 24 25 25 25 25 26 26 27 28 29 30 31 31 32 32 33 32 33 33 33 34 34 34 34 34 34 34 35 35 35 35 35 35 36 36 36 37 37 38 38 38
23 23 23 24 24 25 25 25 26 26 27 28 28 30 31 31 32 32 33 33 33 33 33 33 34 34 34 34 34 34 34 34 34 34 34 35 35 36 36 37 37 37 37 37
22 22 22 23 23 25 26 26 26 26 27 27 27 29 30 31 32 32 32 33 33 34 34 33 34 34 35 34 34 34 34 34 33 33 34 34 34 35 35 36 36 36 36 37
21 21 21 22 22 23 25 26 26 26 26 26 26 26 27 29 31 32 32 32 32 34 35 34 34 34 34 35 35 34 34 34 34 34 33 34 34 34 34 34 34 34 35 35
18 19 21 21 21 22 23 25 25 25 25 25 25 25 26 27 29 30 31 31 31 32 33 34 34 34 34 34 35 34 34 34 34 34 34 34 34 34 33 33 32 32 32 32
18 19 20 21 21 23 23 24 25 26 25 25 25 25 25 26 27 28 29 30 30 31 31 32 33 33 32 33 33 34 34 33 33 34 34 33 33 32 32 30 29 29 30 30
19 18 19 20 21 21 22 23 25 26 26 26 25 24 24 25 25 26 27 28 28 29 30 31 32 32 32 32 32 32 33 33 33 32 32 32 31 30 29 28 28 28 28 28
19 19 19 20 20 20 21 21 22 24 25 25 25 24 24 23 23 24 25 25 26 27 28 29 30 31 31 31 30 30 31 31 30 30 30 29 29 28 28 28 28 27 26 26
18 18 18 19 19 20 20 20 20 21 22 23 23 23 23 22 22 23 23 24 25 25 26 27 28 29 29 29 29 29 28 28 28 27 27 27 27 26 26 26 26 26 26 26
18 18 18 18 18 18 18 18 19 20 20 21 22 22 22 21 21 22 22 23 23 24 25 25 25 26 26 26 26 26 26 26 25 25 25 25 25 25 24 24 24 25 25 25
18 18 18 18 17 17 17 17 17 18 20 20 20 21 21 21 21 21 22 22 22 22 22 23 23 23 23 23 23 23 24 24 24 24 23 23 23 23 23 24 23 23 24 24
18 18 18 18 18 18 17 17 17 18 19 19 19 20 21 21 21 21 22 21 21 21 21 21 21 21 21 21 21 21 22 22 22 22 21 22 22 22 22 22 22 23 23 23
18 18 18 18 19 19 18 18 18 18 18 19 19 19 20 20 20 20 21 21 21 20 21 21 21 20 20 20 19 20 20 20 20 21 21 21 21 21 22 22 23 23 23 23
18 19 19 19 19 19 19 19 19 19 19 19 19 19 20 20 20 20 19 20 20 20 20 20 21 20 20 19 19 19 19 20 20 20 20 20 20 20 21 22 23 23 22 22
18 19 20 20 20 20 21 21 21 20 20 20 20 20 20 19 19 19 19 19 20 20 20 20 20 20 20 20 20 20 20 20 20 20 20 20 19 20 21 21 21 21 21 21
18 18 19 20 20 21 21 21 22 21 21 21 20 20 20 19 19 18 18 19 19 19 20 20 20 20 20 20 20 20 20 20 19 19 19 19 19 20 20 20 19 19 20 20
18 18 18 18 18 19 19 20 20 20 20 20 19 20 20 19 19 18 18 18 18 18 19 19 20 20 21 21 20 20 20 19 19 19 19 19 19 19 19 18 18 19 19 19
19 18 18 17 17 17 17 17 17 18 18 18 18 18 19 19 18 18 17 17 16 17 17 17 18 18 19 19 19 19 19 19 19 19 19 19 19 18 18 18 19 19 19 19
19 19 18 18 17 17 17 17 17 17 17 17 17 17 18 18 18 18 17 17 16 16 17 17 18 18 18 18 18 19 19 19 19 18 17 17 17 17 17 17 18 18 18 17
19 19 18 18 18 18 17 17 17 16 16 16 16 17 17 17 17 16 16 16 17 17 17 17 18 18 17 17 17 17 17 17 17 16 16 16 15 16 16 16 16 16 16 16
Wind_Direction
240 241 239 236 234 235 235 237 239 239 240 241 241 240 240 239 237 236 236 236 238 239 240 241 242 243 245 246 248 250 251 253 255 258 260 262 265 268 271 273 276 278 280 281
239 239 237 236 235 237 238 239 240 240 239 239 240 239 239 238 238 238 237 237 237 238 239 241 243 244 245 247 249 250 251 253 255 257 260 263 265 268 270 273 276 278 280 282
240 240 239 239 236 238 239 240 241 241 239 238 238 236 236 236 236 236 237 237 237 238 240 242 244 245 246 248 249 251 252 254 256 257 260 262 265 268 270 273 276 278 280 282
242 242 242 240 237 238 239 240 241 241 238 237 236 235 235 236 236 236 237 238 239 240 242 243 244 246 247 249 249 251 252 254 256 258 260 263 265 268 270 273 276 278 280 282
242 243 244 241 240 240 242 242 243 243 241 238 237 236 237 238 239 239 240 240 241 241 242 244 245 246 247 249 249 251 252 254 256 258 261 264 265 268 270 273 276 278 280 282
242 242 242 241 242 242 244 244 243 244 242 241 240 239 238 240 241 242 242 241 241 241 243 245 245 246 247 248 249 250 252 254 256 259 262 264 266 268 271 274 276 278 279 282
243 243 243 244 244 243 243 243 243 244 242 241 241 241 240 241 243 243 243 242 240 241 243 245 246 247 248 248 249 251 252 254 257 259 263 266 267 270 273 275 277 278 280 283
245 245 245 245 245 243 243 243 244 245 243 241 240 242 242 242 243 244 244 243 241 241 243 245 247 248 249 250 251 252 254 256 259 261 263 267 269 272 275 277 279 279 281 283
246 247 248 248 248 246 246 246 246 246 243 242 242 243 243 243 244 245 246 246 246 244 244 246 248 249 250 251 252 254 256 257 260 263 266 268 271 273 276 278 279 280 281 283
245 244 245 247 248 248 247 247 246 246 245 244 245 244 244 245 246 248 249 250 250 249 248 248 250 250 251 252 253 254 256 258 260 263 266 269 272 275 277 279 279 281 282 284
247 245 246 246 247 248 249 248 247 247 247 247 247 247 246 247 248 249 250 252 254 253 252 251 251 251 251 252 252 254 256 259 261 264 267 270 272 275 278 279 280 281 282 283
247 246 247 247 248 248 248 248 248 248 248 248 249 250 249 248 248 249 251 252 254 254 253 252 251 251 252 253 255 256 257 260 263 266 268 270 272 274 276 279 280 281 283 285
252 249 248 248 248 249 249 248 248 249 249 249 249 250 250 250 250 251 252 252 252 252 253 253 252 253 254 255 257 258 260 262 265 267 268 270 272 274 276 277 278 280 283 286
255 254 252 250 250 249 249 250 250 251 250 248 248 250 250 250 250 250 251 251 251 252 252 252 253 254 255 256 257 259 261 263 265 267 268 269 271 272 273 274 275 279 283 286
254 256 254 253 251 249 249 249 250 249 247 247 248 250 249 249 250 250 251 251 251 252 252 252 253 254 255 256 256 258 261 263 264 265 266 267 269 271 272 274 276 279 283 286
252 254 254 254 251 251 251 251 251 249 246 245 246 246 247 248 248 249 251 252 252 252 253 253 254 254 255 255 256 257 259 260 261 262 264 266 269 270 271 274 277 280 283 286
254 254 254 254 252 252 252 251 250 246 243 245 246 246 246 247 249 251 252 253 254 254 254 254 255 254 254 254 254 255 256 257 259 261 264 266 267 268 270 273 277 280 284 287
256 256 253 252 251 250 251 251 251 249 247 246 245 246 246 247 251 253 253 254 255 256 254 253 254 254 253 253 253 253 254 256 259 262 264 265 266 268 271 274 277 281 284 286
256 254 252 251 250 251 251 251 252 252 250 249 247 246 247 249 252 253 253 253 255 255 253 252 252 253 252 252 252 253 255 257 259 260 263 265 267 269 271 274 277 281 284 286
254 253 253 252 251 250 249 251 251 252 251 250 249 248 248 249 252 252 251 251 250 251 251 250 250 250 249 250 251 253 254 256 258 261 263 265 269 271 273 275 279 282 285 286
256 255 254 253 251 250 250 251 251 252 252 252 250 249 248 249 250 250 248 248 248 249 250 249 247 246 247 248 250 253 254 257 260 261 263 266 268 271 274 277 280 282 284 286
259 257 254 253 251 251 251 251 252 252 252 251 250 249 249 249 249 250 248 247 246 247 248 248 246 246 247 249 252 253 255 258 260 261 263 264 266 270 274 277 279 280 282 284
261 258 256 254 252 251 251 251 251 251 250 251 250 248 247 246 247 248 247 245 245 246 247 247 246 247 248 252 254 256 257 258 258 261 262 263 266 271 275 277 278 280 283 285
262 259 257 256 254 252 250 249 250 249 248 249 248 246 245 244 244 245 245 244 245 246 247 247 247 249 250 251 253 255 256 257 259 261 263 265 267 271 273 275 279 282 284 285
260 259 256 254 253 251 250 249 249 249 247 245 243 242 241 241 243 243 244 244 246 247 248 248 247 248 249 251 252 254 256 258 260 261 263 265 268 270 272 275 279 282 284 285
259 257 253 251 252 251 251 251 250 248 245 242 239 238 238 240 242 244 244 244 247 249 248 247 247 248 251 253 254 256 257 257 258 259 262 266 269 271 274 277 280 282 284 286
258 256 252 250 251 251 250 249 247 244 241 239 237 237 238 240 242 243 243 244 246 249 250 250 251 252 253 254 256 257 256 255 256 259 262 266 271 274 277 280 282 282 283 285
Height
5534 5537 5540 5543 5547 5550 5553 5557 5561 5566 5570 5574 5577 5580 5584 5587 5590 5594 5598 5602 5606 5609 5613 5616 5620 5623 5626 5629 5631 5634 5636 5638 5639 5640 5641 5642 5642 5643 5643 5642 5641 5640 5639 5637
5528 5531 5533 5536 5541 5544 5547 5551 5554 5558 5563 5566 5569 5572 5576 5579 5583 5586 5590 5594 5597 5601 5605 5608 5611 5614 5617 5620 5622 5624 5627 5628 5630 5631 5632 5633 5633 5633 5633 5633 5632 5631 5629 5628
5523 5526 5528 5531 5535 5538 5541 5544 5548 5551 5556 5558 5561 5564 5568 5571 5575 5578 5582 5585 5589 5592 5596 5599 5603 5605 5608 5611 5613 5615 5617 5619 5621 5622 5623 5624 5624 5624 5624 5623 5622 5621 5620 5618
5518 5521 5523 5529 5530 5532 5535 5538 5541 5544 5548 5551 5554 5557 5560 5564 5567 5570 5573 5577 5580 5584 5588 5591 5594 5597 5599 5602 5604 5606 5608 5610 5611 5613 5614 5614 5615 5615 5614 5614 5613 5612 5611 5609
5513 5515 5518 5522 5524 5526 5528 5532 5534 5537 5540 5543 5546 5549 5553 5556 5559 5563 5566 5569 5572 5576 5579 5582 5585 5588 5591 5593 5595 5597 5599 5601 5602 5603 5604 5605 5605 5605 5605 5604 5604 5603 5601 5600
5508 5509 5512 5517 5519 5520 5523 5525 5528 5530 5533 5536 5539 5543 5547 5549 5552 5555 5558 5561 5564 5568 5571 5574 5577 5580 5583 5585 5587 5588 5590 5591 5593 5594 5595 5595 5596 5596 5595 5595 5594 5593 5591 5590
5502 5504 5507 5511 5512 5515 5519 5521 5522 5524 5526 5529 5533 5536 5540 5542 5544 5547 5550 5553 5556 5560 5563 5566 5568 5571 5574 5576 5578 5579 5580 5582 5583 5584 5585 5586 5586 5586 5586 5585 5584 5583 5582 5580
5497 5499 5504 5505 5506 5509 5511 5513 5515 5518 5520 5523 5526 5529 5531 5534 5537 5539 5542 5545 5548 5551 5554 5557 5560 5563 5565 5567 5568 5570 5572 5573 5574 5575 5576 5576 5577 5576 5576 5575 5575 5573 5572 5570
5493 5496 5497 5498 5500 5502 5505 5507 5509 5512 5514 5516 5519 5522 5524 5527 5530 5532 5535 5538 5541 5543 5546 5549 5551 5554 5556 5558 5560 5561 5563 5564 5565 5566 5567 5567 5567 5567 5567 5566 5565 5564 5562 5561
5487 5489 5491 5492 5494 5496 5498 5500 5503 5505 5507 5510 5512 5514 5517 5520 5523 5525 5528 5530 5533 5535 5538 5540 5543 5545 5547 5549 5551 5552 5554 5555 5556 5557 5557 5558 5558 5557 5557 5556 5555 5554 5553 5551
5481 5483 5485 5486 5488 5490 5492 5494 5496 5498 5501 5503 5505 5507 5510 5512 5515 5517 5520 5522 5524 5526 5529 5531 5533 5536 5538 5539 5541 5543 5544 5546 5547 5547 5548 5548 5548 5548 5547 5546 5545 5544 5543 5542
5477 5478 5480 5481 5483 5484 5486 5488 5490 5492 5494 5497 5499 5501 5503 5505 5507 5509 5512 5514 5516 5518 5520 5522 5524 5526 5528 5530 5532 5534 5535 5537 5538 5538 5538 5539 5539 5538 5537 5537 5536 5535 5534 5533
5472 5473 5474 5475 5477 5478 5480 5481 5483 5486 5488 5490 5492 5494 5496 5498 5500 5502 5504 5506 5508 5510 5512 5513 5515 5517 5519 5521 5523 5524 5526 5527 5528 5529 5529 5529 5529 5529 5529 5529 5528 5527 5526 5524
5467 5468 5469 5470 5471 5473 5474 5476 5477 5479 5481 5484 5486 5487 5489 5491 5493 5494 5496 5498 5500 5502 5504 5505 5507 5509 5510 5512 5514 5515 5517 5518 5518 5519 5520 5520 5520 5521 5521 5521 5521 5520 5519 5517
5462 5463 5464 5465 5466 5467 5469 5470 5472 5473 5475 5477 5479 5481 5483 5485 5486 5488 5489 5490 5492 5494 5495 5497 5499 5501 5502 5504 5505 5506 5508 5508 5509 5510 5511 5511 5512 5512 5513 5513 5513 5512 5511 5510
5458 5458 5459 5460 5461 5462 5463 5465 5466 5468 5469 5471 5473 5475 5477 5478 5480 5481 5483 5484 5485 5486 5488 5489 5491 5493 5494 5496 5497 5498 5499 5500 5501 5502 5503 5503 5504 5505 5505 5505 5505 5505 5504 5503
5453 5454 5455 5455 5456 5457 5458 5460 5461 5462 5463 5465 5467 5469 5471 5473 5474 5475 5476 5477 5479 5480 5481 5482 5484 5485 5487 5488 5489 5491 5492 5493 5494 5495 5496 5497 5497 5498 5498 5498 5498 5498 5497 5496
5448 5449 5450 5451 5452 5453 5454 5455 5456 5457 5458 5459 5461 5463 5465 5467 5468 5469 5470 5471 5472 5473 5474 5476 5477 5479 5480 5481 5483 5484 5485 5486 5488 5488 5489 5490 5490 5491 5492 5492 5492 5491 5491 5490
5443 5444 5445 5446 5447 5448 5449 5450 5451 5452 5453 5454 5456 5457 5459 5461 5462 5463 5464 5465 5466 5467 5468 5470 5471 5473 5474 5475 5477 5478 5479 5480 5481 5482 5483 5484 5484 5485 5485 5485 5486 5485 5485 5484
5438 5439 5440 5441 5442 5443 5445 5446 5446 5447 5448 5449 5451 5452 5453 5455 5456 5457 5458 5459 5460 5461 5462 5464 5466 5467 5469 5470 5471 5472 5474 5475 5476 5477 5477 5478 5478 5479 5479 5479 5479 5479 5478 5478
5433 5434 5435 5436 5437 5438 5439 5440 5441 5442 5443 5444 5445 5446 5448 5449 5450 5451 5452 5453 5454 5455 5457 5458 5460 5461 5463 5465 5466 5467 5468 5469 5470 5471 5471 5472 5472 5473 5473 5473 5473 5473 5472 5472
5428 5428 5429 5430 5431 5432 5433 5434 5435 5436 5437 5438 5439 5441 5442 5443 5444 5445 5446 5448 5449 5450 5451 5453 5454 5456 5458 5459 5461 5462 5463 5464 5464 5465 5466 5466 5467 5467 5467 5467 5467 5467 5466 5465
5422 5423 5423 5424 5425 5426 5427 5428 5429 5430 5431 5432 5434 5435 5436 5438 5439 5440 5441 5442 5443 5445 5446 5447 5449 5450 5452 5454 5455 5456 5457 5458 5459 5459 5460 5460 5461 5461 5461 5461 5461 5461 5460 5460
5417 5417 5417 5418 5419 5420 5421 5422 5423 5424 5425 5427 5428 5429 5431 5432 5434 5435 5436 5437 5438 5440 5441 5442 5443 5445 5446 5448 5449 5450 5451 5452 5453 5454 5454 5455 5455 5455 5455 5455 5455 5455 5455 5454
5411 5411 5412 5413 5414 5414 5415 5416 5417 5418 5420 5421 5423 5424 5426 5427 5429 5430 5431 5433 5434 5435 5436 5437 5438 5439 5441 5442 5443 5444 5445 5446 5447 5448 5448 5449 5449 5449 5450 5450 5450 5449 5449 5448
5405 5406 5406 5407 5408 5409 5410 5411 5412 5413 5415 5416 5418 5419 5421 5422 5424 5425 5427 5428 5429 5430 5431 5432 5433 5434 5435 5437 5438 5438 5439 5440 5441 5442 5443 5443 5444 5444 5444 5444 5444 5444 5443 5443
5399 5400 5401 5402 5403 5404 5405 5406 5408 5409 5410 5411 5413 5415 5416 5418 5419 5421 5422 5423 5424 5425 5426 5427 5428 5429 5430 5431 5432 5433 5434 5435 5436 5436 5437 5438 5438 5439 5439 5439 5439 5439 5438 5438